BEAR Weather Reports


Display with metric or nautical units.
time (UTC)temp
F
wind
direction
speed
MPH
gust
MPH
rain 1hr
in
rain 24hr
in
rain mn
in
humidity
%
barometer
mb
20260503023005 34 77 0.0 4.0 0.00 0.00 0.00 95 1013.7
20260503021503 35 101 1.0 2.0 0.00 0.00 0.00 95 1013.8
20260503020002 34 103 0.0 2.0 0.00 0.00 0.00 94 1013.9
20260503014558 35 101 0.0 2.0 0.00 0.00 0.00 94 1014.0
20260503013103 35 100 0.0 2.0 0.00 0.00 0.00 94 1013.9
20260503011606 35 98 0.0 2.0 0.00 0.00 0.00 94 1014.0
20260503010119 36 98 1.0 4.0 0.00 0.00 0.00 93 1013.9
20260503004527 36 101 0.0 3.0 0.00 0.00 0.00 94 1013.7
20260503003024 36 38 0.0 3.0 0.00 0.00 0.00 94 1013.4
20260503001521 36 49 0.0 2.0 0.00 0.00 0.00 94 1013.5
20260503000019 37 47 0.0 2.0 0.00 0.00 0.00 93 1013.5
20260502234516 37 47 0.0 0.0 0.00 0.00 0.00 93 1013.2
20260502233018 37 279 0.0 2.0 0.00 0.00 0.00 93 1013.1
20260502231614 37 279 0.0 2.0 0.00 0.00 0.00 92 1013.2
20260502230045 37 279 0.0 2.0 0.00 0.00 0.00 92 1013.0
20260502224543 37 279 0.0 2.0 0.00 0.00 0.00 89 1012.9
20260502223045 38 279 0.0 4.0 0.00 0.00 0.00 88 1012.8
20260502221545 38 107 0.0 3.0 0.00 0.00 0.00 86 1012.5
20260502220040 39 139 0.0 3.0 0.00 0.00 0.00 86 1012.5
20260502214549 39 284 1.0 4.0 0.00 0.00 0.00 86 1012.4
20260502213009 39 290 1.0 5.0 0.00 0.00 0.00 85 1012.3
20260502211522 40 310 2.0 5.0 0.00 0.00 0.00 85 1012.3
20260502210047 40 323 0.0 2.0 0.00 0.00 0.00 86 1012.3
20260502204537 41 322 1.0 3.0 0.00 0.00 0.00 81 1012.4
20260502203044 42 321 2.0 8.0 0.00 0.00 0.00 78 1012.1
20260502201541 43 360 1.0 4.0 0.00 0.00 0.00 78 1012.0
20260502200034 43 360 2.0 5.0 0.00 0.00 0.00 78 1012.0
20260502194533 43 293 2.0 7.0 0.00 0.00 0.00 76 1012.1
20260502193031 44 264 2.0 5.0 0.00 0.00 0.00 71 1012.0
20260502191630 45 326 2.0 6.0 0.00 0.00 0.00 69 1012.1
20260502190032 45 360 3.0 8.0 0.00 0.00 0.00 66 1012.1
20260502184532 45 259 1.0 5.0 0.00 0.00 0.00 72 1012.1
20260502183025 45 187 2.0 3.0 0.00 0.00 0.00 72 1012.1
20260502181525 44 166 1.0 6.0 0.00 0.00 0.00 74 1012.1
20260502163018 39 275 1.0 4.0 0.00 0.00 0.00 90 1012.6
20260502161510 39 277 2.0 4.0 0.00 0.00 0.00 93 1012.7
20260502151506 38 293 2.0 5.0 0.00 0.00 0.00 95 1013.0
20260502123030 37 157 0.0 0.0 0.00 0.00 0.00 95 1012.8
20260502121530 37 158 0.0 1.0 0.00 0.00 0.00 95 1013.0
20260502114530 37 157 0.0 1.0 0.00 0.00 0.00 95 1012.9
20260502113028 37 157 0.0 1.0 0.00 0.00 0.00 95 1012.6
20260502111523 37 142 0.0 0.0 0.00 0.00 0.00 95 1012.5
20260502110021 37 142 0.0 0.0 0.00 0.00 0.00 96 1012.4
20260502104522 36 142 0.0 0.0 0.00 0.00 0.00 95 1012.3
20260502103019 36 142 0.0 0.0 0.00 0.00 0.00 95 1012.3
20260502101519 36 142 0.0 0.0 0.00 0.00 0.00 95 1012.3
20260502100106 36 142 0.0 1.0 0.00 0.00 0.00 95 1012.2
20260502071527 38 142 0.0 1.0 0.00 0.00 0.00 86 1012.7
20260502070026 39 142 0.0 2.0 0.00 0.00 0.00 84 1012.7
20260502064538 39 142 0.0 2.0 0.00 0.00 0.00 81 1012.7
20260502063023 39 142 0.0 2.0 0.00 0.00 0.00 81 1012.8
20260502061548 40 143 0.0 2.0 0.00 0.00 0.00 79 1012.8
20260502060048 40 143 0.0 2.0 0.00 0.00 0.00 74 1012.9
20260502054542 40 143 0.0 1.0 0.00 0.00 0.00 77 1012.9
20260502053042 40 143 1.0 3.0 0.00 0.00 0.00 73 1012.8
20260502051539 40 143 0.0 2.0 0.00 0.00 0.00 71 1013.1
20260502050038 40 142 0.0 2.0 0.00 0.00 0.00 74 1013.1
20260502044506 40 160 2.0 5.0 0.00 0.00 0.00 70 1013.1
20260502043002 40 78 1.0 3.0 0.00 0.00 0.00 74 1013.1
20260502041605 40 78 0.0 2.0 0.00 0.00 0.00 73 1013.0
20260502040059 38 78 1.0 2.0 0.00 0.00 0.00 80 1012.9
20260502034559 38 74 1.0 2.0 0.00 0.00 0.00 78 1012.8
20260502033058 39 74 1.0 2.0 0.00 0.00 0.00 77 1012.8
20260502031556 40 74 0.0 2.0 0.00 0.00 0.00 75 1012.9
20260502030057 40 74 0.0 2.0 0.00 0.00 0.00 74 1013.0
20260502024555 40 74 1.0 2.0 0.00 0.00 0.00 75 1013.0